,,PA_Meas_PMT16A,,PR_Meas_QMR101_102,,RH_Meas_QMH101,,SR_Meas_QMS101,,TA_Meas_QMH101,,GenWind,,GenWind,
time,status,PA,status,PR,status,RH,status,SR,status,TA,status,DirAvg,status,SpdAvg,
2011-04-06, 00:00:04,VALID,919.348,VALID,0,VALID,95.9941,VALID,0.107441,VALID,18.572,VALID,121,VALID,1.27656,
2011-04-06, 00:01:04,VALID,919.33,VALID,0,VALID,95.8797,VALID,0,VALID,18.5929,VALID,121,VALID,1.30469,
2011-04-06, 00:02:04,VALID,919.323,VALID,0,VALID,95.7044,VALID,0.107441,VALID,18.5929,VALID,121,VALID,1.16016,
2011-04-06, 00:03:04,VALID,919.316,VALID,0,VALID,95.5976,VALID,0.107441,VALID,18.5914,VALID,121,VALID,0.965625,
2011-04-06, 00:04:04,VALID,919.334,VALID,0,VALID,95.4223,VALID,0,VALID,18.5511,VALID,121,VALID,1.0125,
2011-04-06, 00:05:04,VALID,919.34,VALID,0,VALID,95.3079,VALID,0.107441,VALID,18.5511,VALID,121,VALID,1.15078,
2011-04-06, 00:06:04,VALID,919.304,VALID,0,VALID,95.2851,VALID,0,VALID,18.59,VALID,121,VALID,1.33594,
2011-04-06, 00:07:04,VALID,919.29,VALID,0,VALID,95.1707,VALID,0,VALID,18.5705,VALID,121,VALID,1.21836,
2011-04-06, 00:08:04,VALID,919.265,VALID,0,VALID,95.1326,VALID,0,VALID,18.5705,VALID,124,VALID,1.23984,
2011-04-06, 00:09:04,VALID,919.251,VALID,0,VALID,95.0869,VALID,0,VALID,18.572,VALID,134,VALID,1.56992,
2011-04-06, 00:10:04,VALID,919.264,VALID,0,VALID,94.942,VALID,0.107441,VALID,18.533,VALID,134,VALID,1.67461,
2011-04-06, 00:11:04,VALID,919.257,VALID,0,VALID,94.4694,VALID,0,VALID,18.4926,VALID,134,VALID,1.29141,
2011-04-06, 00:12:04,VALID,919.205,VALID,0,VALID,93.6842,VALID,0,VALID,18.4731,VALID,134,VALID,1.31484,
2011-04-06, 00:13:04,VALID,919.184,VALID,0,VALID,92.7846,VALID,0,VALID,18.455,VALID,133,VALID,1.43906,
2011-04-06, 00:14:04,VALID,919.188,VALID,0,VALID,92.0604,VALID,0,VALID,18.4536,VALID,131,VALID,1.1125,
2011-04-06, 00:15:04,VALID,919.186,VALID,0,VALID,91.6792,VALID,0,VALID,18.4327,VALID,139,VALID,1.11055,
2011-04-06, 00:16:04,VALID,919.162,VALID,0,VALID,91.481,VALID,0,VALID,18.4745,VALID,137,VALID,1.05313,
2011-04-06, 00:17:04,VALID,919.16,VALID,0,VALID,91.5267,VALID,0.107441,VALID,18.4341,VALID,128,VALID,1.06992,
2011-04-06, 00:18:04,VALID,919.133,VALID,0,VALID,91.4657,VALID,0,VALID,18.4355,VALID,129,VALID,1.6332,
2011-04-06, 00:19:04,VALID,919.104,VALID,0,VALID,91.4124,VALID,0,VALID,18.4369,VALID,129,VALID,1.33984,
2011-04-06, 00:20:04,VALID,919.111,VALID,0,VALID,91.42,VALID,0.107441,VALID,18.3951,VALID,141,VALID,1.14766,
2011-04-06, 00:21:04,VALID,919.069,VALID,0,VALID,91.4124,VALID,0,VALID,18.3951,VALID,133,VALID,0.818359,
2011-04-06, 00:22:04,VALID,919.053,VALID,0,VALID,91.4657,VALID,0,VALID,18.3756,VALID,137,VALID,0.697266,
2011-04-06, 00:23:04,VALID,919.062,VALID,0,VALID,91.5801,VALID,0,VALID,18.3561,VALID,137,VALID,1.24258,
2011-04-06, 00:24:04,VALID,919.058,VALID,0,VALID,91.7783,VALID,0.107441,VALID,18.3172,VALID,137,VALID,0.884375,
2011-04-06, 00:25:04,VALID,919.032,VALID,0,VALID,92.1595,VALID,0,VALID,18.2977,VALID,137,VALID,1.22773,
2011-04-06, 00:26:04,VALID,919.036,VALID,0,VALID,92.8532,VALID,0,VALID,18.2782,VALID,137,VALID,1.22187,
2011-04-06, 00:27:04,VALID,919.017,VALID,0,VALID,93.5851,VALID,0,VALID,18.2587,VALID,137,VALID,1.15,
2011-04-06, 00:28:04,VALID,918.989,VALID,0,VALID,94.2407,VALID,0,VALID,18.2392,VALID,137,VALID,1.23672,
2011-04-06, 00:29:04,VALID,918.978,VALID,0,VALID,94.6295,VALID,0.107441,VALID,18.1807,VALID,170,VALID,1.21328,
2011-04-06, 00:30:04,VALID,918.942,VALID,0,VALID,94.8963,VALID,0,VALID,18.1626,VALID,170,VALID,1.13359,
2011-04-06, 00:31:04,VALID,918.938,VALID,0,VALID,94.9573,VALID,0,VALID,18.1028,VALID,170,VALID,1.09063,
2011-04-06, 00:32:04,VALID,918.894,VALID,0,VALID,94.8658,VALID,0.107441,VALID,18.1041,VALID,165,VALID,1.31289,
2011-04-06, 00:33:04,VALID,918.875,VALID,0,VALID,94.66,VALID,0,VALID,18.1041,VALID,146,VALID,1.21641,
2011-04-06, 00:34:04,VALID,918.836,VALID,0,VALID,94.4465,VALID,0,VALID,18.1236,VALID,152,VALID,0.825,
2011-04-06, 00:35:04,VALID,918.822,VALID,0,VALID,94.294,VALID,0,VALID,18.1431,VALID,153,VALID,1.09648,
2011-04-06, 00:36:04,VALID,918.76,VALID,0,VALID,94.1339,VALID,0,VALID,18.1417,VALID,151,VALID,1.13672,
2011-04-06, 00:37:04,VALID,918.766,VALID,0,VALID,93.7909,VALID,0,VALID,18.1417,VALID,159,VALID,0.726953,
2011-04-06, 00:38:04,VALID,918.784,VALID,0,VALID,93.4173,VALID,0,VALID,18.1612,VALID,159,VALID,1.23242,
2011-04-06, 00:39:04,VALID,918.778,VALID,0,VALID,92.8837,VALID,0,VALID,18.2016,VALID,159,VALID,1.21719,
2011-04-06, 00:40:04,VALID,918.794,VALID,0,VALID,92.0832,VALID,0,VALID,18.2002,VALID,159,VALID,1.10938,
2011-04-06, 00:41:04,VALID,918.761,VALID,0,VALID,91.3514,VALID,0,VALID,18.2406,VALID,159,VALID,1.36055,
2011-04-06, 00:42:04,VALID,918.751,VALID,0,VALID,90.5204,VALID,0.107441,VALID,18.299,VALID,138,VALID,1.60039,
2011-04-06, 00:43:04,VALID,918.742,VALID,0,VALID,89.9258,VALID,0,VALID,18.3561,VALID,124,VALID,1.54727,
2011-04-06, 00:44:04,VALID,918.733,VALID,0,VALID,89.4989,VALID,0.107441,VALID,18.3756,VALID,129,VALID,1.37617,
2011-04-06, 00:45:04,VALID,918.747,VALID,0,VALID,88.9195,VALID,0,VALID,18.3561,VALID,126,VALID,1.68906,
2011-04-06, 00:46:04,VALID,918.724,VALID,0,VALID,88.4392,VALID,0.107441,VALID,18.416,VALID,126,VALID,1.22148,
2011-04-06, 00:47:04,VALID,918.696,VALID,0,VALID,88.2868,VALID,0,VALID,18.3965,VALID,126,VALID,1.37539,
2011-04-06, 00:48:04,VALID,918.684,VALID,0,VALID,87.6693,VALID,0,VALID,18.3965,VALID,126,VALID,1.35742,
2011-04-06, 00:49:04,VALID,918.642,VALID,0,VALID,87.7303,VALID,0.107441,VALID,18.3561,VALID,126,VALID,1.5832,
2011-04-06, 00:50:04,VALID,918.627,VALID,0,VALID,87.9513,VALID,0,VALID,18.338,VALID,126,VALID,1.20586,
2011-04-06, 00:51:04,VALID,918.578,VALID,0,VALID,87.9666,VALID,0,VALID,18.3199,VALID,126,VALID,1.0582,
2011-04-06, 00:52:04,VALID,918.541,VALID,0,VALID,88.5307,VALID,0,VALID,18.2615,VALID,115,VALID,0.894141,
2011-04-06, 00:53:04,VALID,918.498,VALID,0,VALID,89.2016,VALID,0,VALID,18.164,VALID,117,VALID,1.08711,
2011-04-06, 00:54:04,VALID,918.498,VALID,0,VALID,90.6043,VALID,0,VALID,18.125,VALID,129,VALID,1.23359,
2011-04-06, 00:55:04,VALID,918.461,VALID,0,VALID,91.1684,VALID,0,VALID,18.0262,VALID,117,VALID,1.1793,
2011-04-06, 00:56:04,VALID,918.457,VALID,0,VALID,91.4505,VALID,0,VALID,17.9677,VALID,125,VALID,0.887109,
2011-04-06, 00:57:04,VALID,918.431,VALID,0,VALID,91.9536,VALID,0,VALID,17.9496,VALID,135,VALID,1.24258,
2011-04-06, 00:58:04,VALID,918.443,VALID,0,VALID,91.6563,VALID,0,VALID,17.9287,VALID,135,VALID,1.20586,
2011-04-06, 00:59:04,VALID,918.448,VALID,0,VALID,91.0693,VALID,0,VALID,17.9092,VALID,138,VALID,1.85312,
2011-04-06, 01:00:04,VALID,918.422,VALID,0,VALID,90.5814,VALID,0,VALID,17.9301,VALID,130,VALID,1.06133,
2011-04-06, 01:01:04,VALID,918.421,VALID,0,VALID,89.9029,VALID,0,VALID,17.9301,VALID,130,VALID,0.99375,
2011-04-06, 01:02:04,VALID,918.428,VALID,0,VALID,89.415,VALID,0,VALID,17.9691,VALID,135,VALID,1.48086,
2011-04-06, 01:03:04,VALID,918.424,VALID,0,VALID,89.1254,VALID,0,VALID,17.9677,VALID,144,VALID,0.933594,
2011-04-06, 01:04:04,VALID,918.417,VALID,0,VALID,88.9348,VALID,0,VALID,18.0289,VALID,146,VALID,1.09297,
2011-04-06, 01:05:04,VALID,918.374,VALID,0,VALID,88.6146,VALID,0,VALID,18.0067,VALID,133,VALID,1.3543,
2011-04-06, 01:06:04,VALID,918.357,VALID,0,VALID,88.363,VALID,0.107441,VALID,18.0651,VALID,133,VALID,0.922266,
2011-04-06, 01:07:04,VALID,918.331,VALID,0,VALID,88.485,VALID,0,VALID,18.0846,VALID,133,VALID,0.812891,
2011-04-06, 01:08:04,VALID,918.318,VALID,0,VALID,88.2105,VALID,0,VALID,18.1236,VALID,162,VALID,0.587891,
2011-04-06, 01:09:04,VALID,918.296,VALID,0,VALID,88.1572,VALID,0,VALID,18.1417,VALID,150,VALID,1.0707,
2011-04-06, 01:10:04,VALID,918.278,VALID,0,VALID,88.0733,VALID,0.107441,VALID,18.1821,VALID,161,VALID,1.13555,
2011-04-06, 01:11:04,VALID,918.276,VALID,0,VALID,88.0657,VALID,0.107441,VALID,18.2016,VALID,145,VALID,0.881641,
2011-04-06, 01:12:04,VALID,918.276,VALID,0,VALID,88.1801,VALID,0.107441,VALID,18.2016,VALID,147,VALID,0.982031,
2011-04-06, 01:13:04,VALID,918.29,VALID,0,VALID,88.1419,VALID,0,VALID,18.1821,VALID,147,VALID,1.11445,
2011-04-06, 01:14:04,VALID,918.288,VALID,0,VALID,88.2792,VALID,0,VALID,18.1626,VALID,147,VALID,1.10508,
2011-04-06, 01:15:04,VALID,918.286,VALID,0,VALID,88.3173,VALID,0,VALID,18.1417,VALID,147,VALID,0.851563,
2011-04-06, 01:16:04,VALID,918.294,VALID,0,VALID,88.1114,VALID,0,VALID,18.1236,VALID,147,VALID,0.597266,
2011-04-06, 01:17:04,VALID,918.282,VALID,0,VALID,88.0352,VALID,0.107441,VALID,18.1431,VALID,147,VALID,0.504297,
2011-04-06, 01:18:04,VALID,918.279,VALID,0,VALID,87.3948,VALID,0.107441,VALID,18.1431,VALID,147,VALID,0.784375,
2011-04-06, 01:19:04,VALID,918.276,VALID,0,VALID,86.9679,VALID,0,VALID,18.1431,VALID,147,VALID,1.08789,
2011-04-06, 01:20:04,VALID,918.258,VALID,0,VALID,87.0137,VALID,0,VALID,18.1417,VALID,147,VALID,0.717969,
2011-04-06, 01:21:04,VALID,918.281,VALID,0,VALID,86.6782,VALID,0.107441,VALID,18.1821,VALID,147,VALID,0.978125,
2011-04-06, 01:22:04,VALID,918.274,VALID,0,VALID,86.3047,VALID,0,VALID,18.2016,VALID,147,VALID,0.657422,
2011-04-06, 01:23:04,VALID,918.269,VALID,0,VALID,86.1217,VALID,0,VALID,18.2016,VALID,147,VALID,0.75,
2011-04-06, 01:24:04,VALID,918.208,VALID,0,VALID,86.0455,VALID,0,VALID,18.2016,VALID,147,VALID,0.492578,
2011-04-06, 01:25:04,VALID,918.226,VALID,0,VALID,85.1764,VALID,0,VALID,18.1417,VALID,147,VALID,0.908594,
2011-04-06, 01:26:04,VALID,918.231,VALID,0,VALID,84.8181,VALID,0,VALID,18.1626,VALID,147,VALID,0.938281,
2011-04-06, 01:27:04,VALID,918.199,VALID,0,VALID,84.963,VALID,0,VALID,18.2016,VALID,147,VALID,0.739062,
2011-04-06, 01:28:04,VALID,918.185,VALID,0,VALID,84.3074,VALID,0,VALID,18.1821,VALID,147,VALID,0.801562,
2011-04-06, 01:29:04,VALID,918.197,VALID,0,VALID,84.2006,VALID,0,VALID,18.2016,VALID,147,VALID,0.836719,
2011-04-06, 01:30:04,VALID,918.194,VALID,0,VALID,84.0787,VALID,0,VALID,18.2211,VALID,147,VALID,0.965234,
2011-04-06, 01:31:04,VALID,918.185,VALID,0,VALID,84.3683,VALID,0,VALID,18.2406,VALID,147,VALID,0.590234,
2011-04-06, 01:32:04,VALID,918.182,VALID,0,VALID,85.1231,VALID,0,VALID,18.2601,VALID,147,VALID,0.804297,
2011-04-06, 01:33:04,VALID,918.179,VALID,0,VALID,85.1993,VALID,0,VALID,18.2016,VALID,147,VALID,0.631641,
2011-04-06, 01:34:04,VALID,918.187,VALID,0,VALID,85.3975,VALID,0.107441,VALID,18.1626,VALID,147,VALID,0.396875,
2011-04-06, 01:35:04,VALID,918.152,VALID,0,VALID,85.5576,VALID,0,VALID,18.1626,VALID,147,VALID,0.823047,
2011-04-06, 01:36:04,VALID,918.138,VALID,0,VALID,85.7558,VALID,0,VALID,18.1222,VALID,147,VALID,0.813281,
2011-04-06, 01:37:04,VALID,918.12,VALID,0,VALID,85.9159,VALID,0,VALID,18.1417,VALID,147,VALID,0.756641,
2011-04-06, 01:38:04,VALID,918.074,VALID,0,VALID,85.9921,VALID,0,VALID,18.1431,VALID,147,VALID,0.808984,
2011-04-06, 01:39:04,VALID,918.047,VALID,0,VALID,85.9693,VALID,0,VALID,18.1626,VALID,147,VALID,1.00742,
2011-04-06, 01:40:04,VALID,918.02,VALID,0,VALID,86.1217,VALID,0,VALID,18.1821,VALID,147,VALID,0.972656,
2011-04-06, 01:41:04,VALID,917.969,VALID,0,VALID,86.2742,VALID,0,VALID,18.1821,VALID,147,VALID,0.972266,
2011-04-06, 01:42:04,VALID,917.946,VALID,0,VALID,86.2208,VALID,0,VALID,18.1821,VALID,147,VALID,0.983984,
2011-04-06, 01:43:04,VALID,917.969,VALID,0,VALID,86.4038,VALID,0,VALID,18.1626,VALID,147,VALID,0.750391,
2011-04-06, 01:44:04,VALID,917.946,VALID,0,VALID,86.4877,VALID,0,VALID,18.1626,VALID,147,VALID,0.958203,
2011-04-06, 01:45:04,VALID,917.956,VALID,0,VALID,86.7316,VALID,0,VALID,18.1431,VALID,148,VALID,1.07617,
2011-04-06, 01:46:04,VALID,917.914,VALID,0,VALID,87.0975,VALID,0,VALID,18.1236,VALID,148,VALID,1.07813,
2011-04-06, 01:47:04,VALID,917.924,VALID,0,VALID,87.1814,VALID,0,VALID,18.1041,VALID,148,VALID,0.975,
2011-04-06, 01:48:04,VALID,917.892,VALID,0,VALID,87.4482,VALID,0,VALID,18.0651,VALID,148,VALID,1.08711,
2011-04-06, 01:49:04,VALID,917.86,VALID,0,VALID,87.7531,VALID,0,VALID,18.0457,VALID,148,VALID,1.12344,
2011-04-06, 01:50:04,VALID,917.837,VALID,0,VALID,88.1038,VALID,0,VALID,18.0067,VALID,148,VALID,1.35742,
2011-04-06, 01:51:04,VALID,917.813,VALID,0,VALID,88.1648,VALID,0,VALID,17.9677,VALID,148,VALID,0.987891,
2011-04-06, 01:52:04,VALID,917.798,VALID,0,VALID,88.3859,VALID,0,VALID,17.9482,VALID,148,VALID,0.888281,
2011-04-06, 01:53:04,VALID,917.808,VALID,0,VALID,88.7137,VALID,0,VALID,17.9092,VALID,148,VALID,1.1418,
2011-04-06, 01:54:04,VALID,917.785,VALID,0,VALID,89.0949,VALID,0,VALID,17.8911,VALID,148,VALID,1.19883,
2011-04-06, 01:55:04,VALID,917.804,VALID,0,VALID,89.5142,VALID,0,VALID,17.8118,VALID,148,VALID,0.943359,
2011-04-06, 01:56:04,VALID,917.788,VALID,0,VALID,89.8725,VALID,0,VALID,17.7533,VALID,148,VALID,1.21016,
2011-04-06, 01:57:04,VALID,917.788,VALID,0,VALID,90.5052,VALID,0,VALID,17.6948,VALID,148,VALID,0.891406,
2011-04-06, 01:58:04,VALID,917.78,VALID,0,VALID,91.5267,VALID,0.107441,VALID,17.6364,VALID,148,VALID,1.37695,
2011-04-06, 01:59:04,VALID,917.827,VALID,0,VALID,91.946,VALID,0,VALID,17.5389,VALID,148,VALID,1.02695,
2011-04-06, 02:00:04,VALID,917.837,VALID,0,VALID,92.655,VALID,0,VALID,17.5013,VALID,149,VALID,1.25039,
2011-04-06, 02:01:04,VALID,917.826,VALID,0,VALID,92.8837,VALID,0,VALID,17.4428,VALID,149,VALID,1.15391,
2011-04-06, 02:02:04,VALID,917.833,VALID,0,VALID,92.8075,VALID,0,VALID,17.4025,VALID,149,VALID,1.05508,
2011-04-06, 02:03:04,VALID,917.833,VALID,0,VALID,92.7541,VALID,0,VALID,17.4025,VALID,149,VALID,0.910156,
2011-04-06, 02:04:04,VALID,917.822,VALID,0,VALID,92.5483,VALID,0,VALID,17.4025,VALID,149,VALID,0.871484,
2011-04-06, 02:05:04,VALID,917.805,VALID,0,VALID,92.2662,VALID,0,VALID,17.383,VALID,149,VALID,0.776172,
2011-04-06, 02:06:04,VALID,917.818,VALID,0,VALID,92.129,VALID,0,VALID,17.4233,VALID,149,VALID,0.580859,
2011-04-06, 02:07:04,VALID,917.827,VALID,0,VALID,91.8774,VALID,0,VALID,17.4415,VALID,149,VALID,0.571875,
2011-04-06, 02:08:04,VALID,917.827,VALID,0,VALID,91.7021,VALID,0,VALID,17.4818,VALID,149,VALID,0.780469,
2011-04-06, 02:09:04,VALID,917.813,VALID,0,VALID,91.4429,VALID,0,VALID,17.5013,VALID,149,VALID,0.764063,
2011-04-06, 02:10:04,VALID,917.844,VALID,0,VALID,91.1989,VALID,0,VALID,17.5194,VALID,149,VALID,1.01367,
2011-04-06, 02:11:04,VALID,917.821,VALID,0,VALID,90.9169,VALID,0,VALID,17.5792,VALID,149,VALID,1.01133,
2011-04-06, 02:12:04,VALID,917.832,VALID,0,VALID,90.6729,VALID,0,VALID,17.5779,VALID,149,VALID,1.07852,
2011-04-06, 02:13:04,VALID,917.844,VALID,0,VALID,90.3451,VALID,0,VALID,17.6572,VALID,149,VALID,0.957031,
2011-04-06, 02:14:04,VALID,917.825,VALID,0,VALID,90.1621,VALID,0,VALID,17.6559,VALID,149,VALID,0.885547,
2011-04-06, 02:15:04,VALID,917.845,VALID,0,VALID,90.1012,VALID,0,VALID,17.6572,VALID,149,VALID,0.727344,
2011-04-06, 02:16:04,VALID,917.845,VALID,0,VALID,90.1088,VALID,0,VALID,17.6391,VALID,149,VALID,0.904688,
2011-04-06, 02:17:04,VALID,917.839,VALID,0,VALID,90.1698,VALID,0,VALID,17.5181,VALID,149,VALID,0.900391,
2011-04-06, 02:18:04,VALID,917.828,VALID,0,VALID,90.2536,VALID,0,VALID,17.5389,VALID,149,VALID,0.845703,
2011-04-06, 02:19:04,VALID,917.813,VALID,0,VALID,90.2612,VALID,0,VALID,17.5806,VALID,149,VALID,0.838281,
2011-04-06, 02:20:04,VALID,917.788,VALID,0,VALID,90.2536,VALID,0,VALID,17.5403,VALID,149,VALID,0.780859,
2011-04-06, 02:21:04,VALID,917.771,VALID,0,VALID,90.2384,VALID,0,VALID,17.5,VALID,149,VALID,0.705078,
2011-04-06, 02:22:04,VALID,917.777,VALID,0,VALID,90.124,VALID,0,VALID,17.5,VALID,149,VALID,0.919141,
2011-04-06, 02:23:04,VALID,917.788,VALID,0,VALID,89.9182,VALID,0,VALID,17.5194,VALID,149,VALID,1.08359,
2011-04-06, 02:24:04,VALID,917.817,VALID,0,VALID,89.5828,VALID,0,VALID,17.5389,VALID,149,VALID,0.910547,
2011-04-06, 02:25:04,VALID,917.828,VALID,0,VALID,89.4837,VALID,0,VALID,17.5,VALID,149,VALID,1.18555,
2011-04-06, 02:26:04,VALID,917.842,VALID,0,VALID,89.6056,VALID,0,VALID,17.5194,VALID,149,VALID,1.38359,
2011-04-06, 02:27:04,VALID,917.849,VALID,0,VALID,89.3007,VALID,0,VALID,17.5,VALID,149,VALID,1.00273,
2011-04-06, 02:28:04,VALID,917.83,VALID,0,VALID,89.3388,VALID,0,VALID,17.5403,VALID,149,VALID,1.26758,
2011-04-06, 02:29:04,VALID,917.844,VALID,0,VALID,89.0339,VALID,0,VALID,17.5389,VALID,149,VALID,1.15977,
2011-04-06, 02:30:04,VALID,917.864,VALID,0,VALID,88.8509,VALID,0,VALID,17.5584,VALID,149,VALID,0.780469,
2011-04-06, 02:31:04,VALID,917.841,VALID,0,VALID,88.7823,VALID,0,VALID,17.5792,VALID,149,VALID,0.904297,
2011-04-06, 02:32:04,VALID,917.868,VALID,0,VALID,88.7289,VALID,0,VALID,17.5792,VALID,149,VALID,0.905859,
2011-04-06, 02:33:04,VALID,917.838,VALID,0,VALID,88.6222,VALID,0,VALID,17.5792,VALID,149,VALID,0.692969,
2011-04-06, 02:34:04,VALID,917.829,VALID,0,VALID,88.4621,VALID,0,VALID,17.5598,VALID,149,VALID,0.830859,
2011-04-06, 02:35:04,VALID,917.82,VALID,0,VALID,88.2334,VALID,0,VALID,17.5194,VALID,149,VALID,0.971484,
2011-04-06, 02:36:04,VALID,917.789,VALID,0,VALID,87.9132,VALID,0,VALID,17.5598,VALID,149,VALID,0.960938,
2011-04-06, 02:37:04,VALID,917.753,VALID,0,VALID,87.6159,VALID,0,VALID,17.5598,VALID,149,VALID,1.04102,
2011-04-06, 02:38:04,VALID,917.753,VALID,0,VALID,87.6083,VALID,0,VALID,17.5987,VALID,149,VALID,0.601563,
2011-04-06, 02:39:04,VALID,917.711,VALID,0,VALID,87.5549,VALID,0,VALID,17.5987,VALID,149,VALID,0.505078,
2011-04-06, 02:40:04,VALID,917.695,VALID,0,VALID,87.4253,VALID,0,VALID,17.5987,VALID,149,VALID,0.9375,
2011-04-06, 02:41:04,VALID,917.695,VALID,0,VALID,87.3643,VALID,0,VALID,17.6182,VALID,149,VALID,0.650391,
2011-04-06, 02:42:04,VALID,917.686,VALID,0,VALID,87.2195,VALID,0,VALID,17.6169,VALID,149,VALID,0.764844,
2011-04-06, 02:43:04,VALID,917.726,VALID,0,VALID,87.1738,VALID,0,VALID,17.6182,VALID,149,VALID,0.612109,
2011-04-06, 02:44:04,VALID,917.687,VALID,0,VALID,87.2957,VALID,0,VALID,17.5974,VALID,149,VALID,0.480859,
2011-04-06, 02:45:04,VALID,917.707,VALID,0,VALID,87.3567,VALID,0,VALID,17.5584,VALID,149,VALID,0.231641,
2011-04-06, 02:46:04,VALID,917.675,VALID,0,VALID,87.0899,VALID,0,VALID,17.4805,VALID,149,VALID,0,
2011-04-06, 02:47:04,VALID,917.686,VALID,0,VALID,88.2105,VALID,0,VALID,17.3649,VALID,149,VALID,0.333203,
2011-04-06, 02:48:04,VALID,917.706,VALID,0,VALID,89.0872,VALID,0,VALID,17.2674,VALID,149,VALID,0.635938,
2011-04-06, 02:49:04,VALID,917.712,VALID,0,VALID,88.95,VALID,0,VALID,17.3051,VALID,149,VALID,0.930078,
2011-04-06, 02:50:04,VALID,917.706,VALID,0,VALID,88.5765,VALID,0,VALID,17.3844,VALID,149,VALID,0.678125,
2011-04-06, 02:51:04,VALID,917.74,VALID,0,VALID,88.2715,VALID,0,VALID,17.4025,VALID,149,VALID,0.517969,
2011-04-06, 02:52:04,VALID,917.733,VALID,0,VALID,88.1724,VALID,0,VALID,17.4428,VALID,149,VALID,0.278516,
2011-04-06, 02:53:04,VALID,917.753,VALID,0,VALID,88.1572,VALID,0,VALID,17.422,VALID,149,VALID,0.0859375,
2011-04-06, 02:54:04,VALID,917.752,VALID,0,VALID,88.1114,VALID,0,VALID,17.4233,VALID,149,VALID,0.00195313,
2011-04-06, 02:55:04,VALID,917.753,VALID,0,VALID,87.9209,VALID,0,VALID,17.3635,VALID,149,VALID,0.00351562,
2011-04-06, 02:56:04,VALID,917.754,VALID,0,VALID,88.3783,VALID,0,VALID,17.3064,VALID,149,VALID,0.360547,
2011-04-06, 02:57:04,VALID,917.753,VALID,0,VALID,88.9119,VALID,0,VALID,17.1869,VALID,149,VALID,0.657031,
2011-04-06, 02:58:04,VALID,917.748,VALID,0,VALID,88.9348,VALID,0,VALID,17.1687,VALID,149,VALID,0.843359,
2011-04-06, 02:59:04,VALID,917.764,VALID,0,VALID,89.011,VALID,0,VALID,17.209,VALID,149,VALID,1.04297,
2011-04-06, 03:00:04,VALID,917.764,VALID,0,VALID,88.6756,VALID,0,VALID,17.2856,VALID,149,VALID,0.955078,
2011-04-06, 03:01:04,VALID,917.762,VALID,0,VALID,88.2334,VALID,0,VALID,17.3844,VALID,149,VALID,0.867969,
2011-04-06, 03:02:04,VALID,917.805,VALID,0,VALID,87.9513,VALID,0,VALID,17.4415,VALID,149,VALID,0.676562,
2011-04-06, 03:03:04,VALID,917.81,VALID,0,VALID,87.837,VALID,0.107441,VALID,17.4415,VALID,149,VALID,0.8625,
2011-04-06, 03:04:04,VALID,917.81,VALID,0,VALID,88.0581,VALID,0,VALID,17.383,VALID,149,VALID,1.07578,
2011-04-06, 03:05:04,VALID,917.779,VALID,0,VALID,88.3859,VALID,0.107441,VALID,17.4038,VALID,149,VALID,1.45781,
2011-04-06, 03:06:04,VALID,917.792,VALID,0,VALID,88.5307,VALID,0,VALID,17.4233,VALID,149,VALID,1.23828,
2011-04-06, 03:07:04,VALID,917.794,VALID,0,VALID,88.1419,VALID,0,VALID,17.422,VALID,149,VALID,0.991797,
2011-04-06, 03:08:04,VALID,917.774,VALID,0,VALID,88.0657,VALID,0,VALID,17.4025,VALID,149,VALID,1.02578,
2011-04-06, 03:09:04,VALID,917.759,VALID,0,VALID,87.9209,VALID,0,VALID,17.3844,VALID,149,VALID,0.857813,
2011-04-06, 03:10:04,VALID,917.778,VALID,0,VALID,87.9132,VALID,0,VALID,17.3259,VALID,149,VALID,1.04062,
2011-04-06, 03:11:04,VALID,917.787,VALID,0,VALID,88.0123,VALID,0,VALID,17.3064,VALID,149,VALID,1.09531,
2011-04-06, 03:12:04,VALID,917.782,VALID,0,VALID,88.1191,VALID,0,VALID,17.2466,VALID,149,VALID,1.16016,
2011-04-06, 03:13:04,VALID,917.79,VALID,0,VALID,88.1038,VALID,0,VALID,17.2285,VALID,149,VALID,1.18164,
2011-04-06, 03:14:04,VALID,917.82,VALID,0,VALID,88.1572,VALID,0,VALID,17.2298,VALID,149,VALID,1.1375,
2011-04-06, 03:15:04,VALID,917.817,VALID,0,VALID,88.1267,VALID,0,VALID,17.1895,VALID,149,VALID,1.43477,
2011-04-06, 03:16:04,VALID,917.826,VALID,0,VALID,88.02,VALID,0,VALID,17.209,VALID,149,VALID,1.32109,
2011-04-06, 03:17:04,VALID,917.825,VALID,0,VALID,87.9666,VALID,0,VALID,17.209,VALID,149,VALID,1.26211,
2011-04-06, 03:18:04,VALID,917.843,VALID,0,VALID,87.9285,VALID,0,VALID,17.209,VALID,149,VALID,0.933984,
2011-04-06, 03:19:04,VALID,917.844,VALID,0,VALID,87.9209,VALID,0,VALID,17.209,VALID,149,VALID,0.975781,
2011-04-06, 03:20:04,VALID,917.859,VALID,0,VALID,87.8904,VALID,0,VALID,17.1882,VALID,149,VALID,0.863281,
2011-04-06, 03:21:04,VALID,917.8,VALID,0,VALID,87.9056,VALID,0,VALID,17.1882,VALID,149,VALID,0.796484,
2011-04-06, 03:22:04,VALID,917.841,VALID,0,VALID,88.1572,VALID,0,VALID,17.209,VALID,149,VALID,1.13437,
2011-04-06, 03:23:04,VALID,917.803,VALID,0,VALID,88.1343,VALID,0,VALID,17.2077,VALID,149,VALID,1.09102,
2011-04-06, 03:24:04,VALID,917.824,VALID,0,VALID,87.9056,VALID,0,VALID,17.2869,VALID,149,VALID,1.10312,
2011-04-06, 03:25:04,VALID,917.819,VALID,0,VALID,87.7379,VALID,0,VALID,17.3064,VALID,149,VALID,0.917969,
2011-04-06, 03:26:04,VALID,917.887,VALID,0,VALID,87.5321,VALID,0,VALID,17.3051,VALID,149,VALID,1.10234,
2011-04-06, 03:27:04,VALID,917.883,VALID,0,VALID,87.4558,VALID,0,VALID,17.2869,VALID,149,VALID,0.705469,
2011-04-06, 03:28:04,VALID,917.895,VALID,0,VALID,87.5854,VALID,0,VALID,17.2285,VALID,149,VALID,0.632031,
2011-04-06, 03:29:04,VALID,917.882,VALID,0,VALID,87.7531,VALID,0,VALID,17.1505,VALID,149,VALID,1.00117,
2011-04-06, 03:30:04,VALID,917.886,VALID,0,VALID,87.776,VALID,0,VALID,17.1115,VALID,149,VALID,1.02813,
2011-04-06, 03:31:04,VALID,917.854,VALID,0,VALID,87.7379,VALID,0,VALID,17.0713,VALID,149,VALID,1.20938,
2011-04-06, 03:32:04,VALID,917.854,VALID,0,VALID,88.0276,VALID,0,VALID,17.0713,VALID,149,VALID,1.06797,
2011-04-06, 03:33:04,VALID,917.839,VALID,0,VALID,88.4164,VALID,0,VALID,17.0726,VALID,149,VALID,1.22148,
2011-04-06, 03:34:04,VALID,917.842,VALID,0,VALID,88.3478,VALID,0,VALID,17.092,VALID,149,VALID,1.16094,
2011-04-06, 03:35:04,VALID,917.85,VALID,0,VALID,88.4774,VALID,0,VALID,17.1323,VALID,149,VALID,1.04688,
2011-04-06, 03:36:04,VALID,917.857,VALID,0,VALID,88.5079,VALID,0,VALID,17.092,VALID,149,VALID,1.20898,
2011-04-06, 03:37:04,VALID,917.865,VALID,0,VALID,88.5917,VALID,0,VALID,17.0726,VALID,149,VALID,1.06406,
2011-04-06, 03:38:04,VALID,917.839,VALID,0,VALID,88.7747,VALID,0,VALID,17.0531,VALID,150,VALID,1.23867,
2011-04-06, 03:39:04,VALID,917.86,VALID,0,VALID,88.889,VALID,0,VALID,17.0336,VALID,159,VALID,1.48672,
2011-04-06, 03:40:04,VALID,917.882,VALID,0,VALID,88.9805,VALID,0,VALID,17.0141,VALID,159,VALID,1.06836,
2011-04-06, 03:41:04,VALID,917.891,VALID,0,VALID,89.3159,VALID,0,VALID,16.9738,VALID,159,VALID,1.17656,
2011-04-06, 03:42:04,VALID,917.854,VALID,0,VALID,89.7047,VALID,0,VALID,16.9556,VALID,159,VALID,1.00742,
2011-04-06, 03:43:04,VALID,917.856,VALID,0,VALID,89.8648,VALID,0,VALID,16.9556,VALID,159,VALID,0.923828,
2011-04-06, 03:44:04,VALID,917.843,VALID,0,VALID,90.1393,VALID,0,VALID,16.9556,VALID,159,VALID,1.18516,